# Land Stadt Wetter Temperatur Luftdruck Luftfeuchtigkeit Sichtweite Windgeschwindigkeit Windrichtung Ortszeit
1 ad Andorra la Vella Clouds 12 1024 86 0 6 208 02.08.2018 14:22
2 ae Dubai Clear 34 1011 21 10000 4 0 02.08.2018 14:21
3 af Kabul Clouds 17 1021 51 10000 8 350 02.08.2018 14:21
4 ar Esquel Clear 2 1020 93 10000 2 0 02.08.2018 14:22
5 ar Ushuaia Clouds 15 1003 58 10000 39 360 02.08.2018 14:22
6 ar Buenos Aires Clear 9 1026 62 10000 4 0 02.08.2018 14:22
7 at Wien Clear 15 1029 22 10000 24 130 02.08.2018 14:22
8 at Innsbruck Clear 13 1027 50 10000 8 270 02.08.2018 14:23
9 au Darwin Clouds 30 1008 66 10000 13 20 02.08.2018 14:22
10 au Perth Clear 28 1011 35 10000 17 240 02.08.2018 14:21
11 au Sydney Clouds 17 1023 82 10000 24 190 02.08.2018 14:22
12 au Alice Springs Clouds 23 1018 33 10000 18 130 02.08.2018 14:21
13 bg Warna Clear 14 1029 30 10000 24 40 02.08.2018 14:21
14 bg Sofia Clear 9 1030 32 10000 11 80 02.08.2018 14:21
15 bo La Paz Clouds 1 1039 28 10000 2 333 02.08.2018 14:22
16 bo Potisi Clouds 5 1020 28 0 3 319 02.08.2018 14:22
17 br Manaus Clouds 26 1010 100 10000 4 300 02.08.2018 14:21
18 br Rio de Janeiro Clouds 22 1014 88 7000 8 170 02.08.2018 14:22
19 bs Nassau Clouds 23 1015 88 10000 11 140 02.08.2018 14:22
20 ca Montreal Clear 0 1004 68 14484 13 20 02.08.2018 14:22
21 cd Kisangani Rain 33 1011 47 0 6 150 02.08.2018 14:23
22 ch Bern Clear 13 1027 58 10000 9 110 02.08.2018 14:23
23 ch Andermatt Clouds 13 1028 41 10000 4 0 02.08.2018 14:23
24 ck Avarua Clouds 28 1013 83 10000 11 60 02.08.2018 14:22
25 cl Santiago Clear 11 1013 57 10000 1 21 02.08.2018 14:23
26 cn Lhasa Clouds 11 1009 9 0 5 171 02.08.2018 14:22
27 cn Peking Clouds 17 1020 17 10000 11 150 02.08.2018 14:23
28 cn Shanghai Clouds 22 1017 21 10000 22 100 02.08.2018 14:21
29 de Hiddensee Clouds 14 1033 63 0 2 157 02.08.2018 14:21
30 de Berlin Clear 15 1029 44 10000 13 130 02.08.2018 14:21
31 de Torfhaus Clear 17 1027 54 10000 8 120 02.08.2018 14:22
32 de Frankfurt Clear 17 1026 51 10000 11 70 02.08.2018 14:22
33 de München Clear 16 1026 44 10000 2 0 02.08.2018 14:21
34 de Köln Clear 18 1026 51 10000 17 150 02.08.2018 14:21
35 de Stuttgart Clear 16 1026 41 10000 4 0 02.08.2018 14:22
36 de Kassel Clouds 16 1027 58 10000 5 100 02.08.2018 14:21
37 de Emden Clouds 16 1026 54 10000 11 200 02.08.2018 14:21
38 de Magdeburg Clear 15 1029 53 0 10 100 02.08.2018 14:22
39 de Bremen Clouds 16 1026 62 10000 8 140 02.08.2018 14:22
40 de Nürnberg Clear 15 1026 34 10000 13 110 02.08.2018 14:21
41 de Trier Clear 17 1026 58 10000 8 90 02.08.2018 14:21
42 de Freiburg Clear 16 1026 47 10000 2 0 02.08.2018 14:22
43 de Hannover Clouds 14 1027 58 10000 9 100 02.08.2018 14:21
44 de Flensburg Clouds 13 1027 50 0 15 150 02.08.2018 14:21
45 de Helgoland Clouds 12 1026 54 10000 11 130 02.08.2018 14:22
46 de Dresden Clear 18 1028 29 10000 21 150 02.08.2018 14:22
47 de Hamburg Clouds 14 1027 47 10000 22 150 02.08.2018 14:21
48 de Braunschweig Clear 16 1027 54 10000 8 120 02.08.2018 14:21
49 de Oberstdorf Clear 15 1027 71 10000 4 0 02.08.2018 14:21
50 do Santo Domingo Rain 24 1016 100 0 9 15 02.08.2018 14:21
51 ec San Cristobal Clouds 26 1010 83 0 8 64 02.08.2018 14:22
52 eg Kairo Clouds 20 1017 42 6000 8 330 02.08.2018 14:22
53 es Madrid Rain 14 1024 82 10000 9 110 02.08.2018 14:23
54 es Barcelona Clouds 15 1026 62 10000 8 320 02.08.2018 14:22
55 es Sevilla Clouds 16 1021 87 9000 8 50 02.08.2018 14:22
56 es Tarifa Clouds 16 1022 82 10000 33 80 02.08.2018 14:21
57 es Palma de Mallorca Clouds 17 1026 55 10000 8 50 02.08.2018 14:22
58 es Las Palmas de Gran Canaria Clouds 21 1020 73 10000 33 20 02.08.2018 14:21
59 et Addis Abeba Clouds 23 1028 33 10000 13 110 02.08.2018 14:23
60 fi Helsinki Clear 10 1024 45 10000 18 220 02.08.2018 14:21
61 fi Rovaniemi Clouds 4 1006 64 10000 26 210 02.08.2018 14:21
62 fj Suva Rain 25 1006 90 0 21 254 02.08.2018 14:21
63 fr Nizza Clear 17 1026 31 10000 15 320 02.08.2018 14:22
64 fr Paris Clouds 16 1024 51 10000 5 130 02.08.2018 14:22
65 fr Bordeaux Clouds 15 1024 76 10000 8 130 02.08.2018 14:21
66 gb Glasgow Clouds 11 1024 76 10000 21 200 02.08.2018 14:21
67 gb London Clouds 14 1025 62 10000 5 100 02.08.2018 14:22
68 gb Manchester Clouds 13 1026 71 10000 4 0 02.08.2018 14:21
69 gl Nuuk Clouds -5 1019 62 0 17 70 02.08.2018 14:22
70 gr Athen Clouds 14 1021 41 10000 37 350 02.08.2018 14:22
71 id Jakarta Rain 32 1008 62 6000 5 140 02.08.2018 14:22
72 ie Dublin Clouds 11 1025 62 10000 5 0 02.08.2018 14:21
73 in Mumbai Smoke 31 1013 62 5000 22 270 02.08.2018 14:22
74 in Nagpur Haze 37 1011 16 5000 8 250 02.08.2018 14:21
75 in Jagatsukh Clouds 14 1017 17 0 5 228 02.08.2018 14:22
76 iq Bagdad Clouds 29 1010 32 10000 15 20 02.08.2018 14:22
77 is Reykjavik Clear -4 1015 79 10000 11 41 02.08.2018 14:22
78 it Palermo Clear 16 1025 58 10000 13 270 02.08.2018 14:22
79 it Mailand Clear 17 1028 42 10000 8 110 02.08.2018 14:21
80 it Rom Clear 16 1026 66 10000 2 103 02.08.2018 14:23
81 jp Nagasaki Clouds 17 1016 55 10000 24 340 02.08.2018 14:21
82 jp Tokio Clouds 18 1010 42 10000 15 180 02.08.2018 14:22
83 ke Nairobi Clouds 23 1023 64 10000 15 70 02.08.2018 14:22
84 kr Seoul Clear 13 1017 20 10000 9 220 02.08.2018 14:21
85 ma Marrakesch Clouds 20 1018 60 0 4 0 02.08.2018 14:23
86 ma Casablanca Mist 18 1019 93 3000 11 20 02.08.2018 14:23
87 mg Antananarivo Clouds 25 1023 61 10000 8 0 02.08.2018 14:21
88 mn Ulaanbaatar Clouds 8 1021 20 10000 14 310 02.08.2018 14:23
89 mn Uliastai Clear 6 1016 30 0 5 357 02.08.2018 14:23
90 mv Male Clouds 32 1012 66 10000 9 290 02.08.2018 14:23
91 mx Veracruz Clear 25 1009 100 0 2 104 02.08.2018 14:21
92 mx Mexiko Stadt Clear 17 1028 45 16093 5 250 02.08.2018 14:21
93 no Hammerfest Rain 2 995 81 10000 9 220 02.08.2018 14:22
94 no Oslo Clouds 8 1020 54 10000 24 180 02.08.2018 14:23
95 nz Wellington Clouds 13 1008 87 10000 18 20 02.08.2018 14:23
96 pe Cusco Clouds 9 1021 30 0 1 262 02.08.2018 14:23
97 pg Port Moresby Rain 27 1010 79 0 22 145 02.08.2018 14:21
98 ph Manila Clouds 32 1009 52 10000 15 110 02.08.2018 14:21
99 pt Lissabon Mist 15 1022 100 1300 7 133 02.08.2018 14:22
100 qa Doha Clear 37 1010 11 10000 18 160 02.08.2018 14:23
101 ru Surgut Snow -1 983 92 2800 32 180 02.08.2018 14:23
102 ru Anadyr Clouds -15 1013 71 10000 11 170 02.08.2018 14:23
103 ru Werchojansk Snow 0 1021 88 0 17 30 02.08.2018 14:22
104 ru Moskau Rain 12 1014 43 10000 18 300 02.08.2018 14:22
105 ru Jakutsk Clouds 10 1023 27 10000 11 290 02.08.2018 14:22
106 ru Amderma Clouds -10 1008 94 0 1 50 02.08.2018 14:23
107 sa Riad Dust 35 1014 16 1000 15 200 02.08.2018 14:21
108 sb Honiara Clouds 28 1008 78 10000 5 159 02.08.2018 14:22
109 se Stockholm Clouds 10 1025 53 10000 17 250 02.08.2018 14:23
110 th Bangkok Clouds 35 1008 50 10000 21 200 02.08.2018 14:21
111 tr Ankara Clouds 10 1019 29 10000 18 50 02.08.2018 14:23
112 tr Istanbul Clouds 11 1025 62 10000 30 30 02.08.2018 14:23
113 tr Alanya Clouds 15 1016 44 10000 18 310 02.08.2018 14:22
114 ua Kiew Clear 17 1026 25 10000 25 280 02.08.2018 14:21
115 us Fairbanks Clear -11 1015 61 16093 13 70 02.08.2018 14:23
116 us Death Valley Rain 16 1013 58 0 1 10 02.08.2018 14:22
117 us Chicago Mist 10 1006 87 9656 13 70 02.08.2018 14:23
118 us Denver Clear 8 1018 33 16093 11 260 02.08.2018 14:21
119 us Miami Clouds 24 1015 88 16093 10 165 02.08.2018 14:23
120 us Las Vegas Clear 12 1014 62 16093 8 210 02.08.2018 14:21
121 us Honolulu Clouds 23 1016 69 16093 8 250 02.08.2018 14:22
122 us Nome Clear -22 1016 83 16093 8 360 02.08.2018 14:23
123 us New York Rain 11 1000 87 14484 8 260 02.08.2018 14:22
124 us Tucson Clear 14 1017 44 16093 11 110 02.08.2018 14:21
125 us Los Angeles Rain 10 1017 81 16093 9 164 02.08.2018 14:22
126 uy Montevideo Clouds 13 1023 58 10000 15 190 02.08.2018 14:22
127 vn Hanoi Mist 23 1014 73 5000 5 250 02.08.2018 14:21
128 za Kapstadt Clouds 18 1021 55 10000 2 0 02.08.2018 14:22